Total_Precipitation_Accumulation
2.89 2.87 3.32 4.16 4.80 4.32 3.81 3.06 2.61 2.44 2.05 1.62 1.24 1.22 1.53 2.00 2.55 3.03 3.34 3.11 2.16 1.71 1.82 2.68 3.42 3.10 2.60 2.22 2.05 2.10 2.08 2.19 2.17 2.15 1.96 1.82 1.69 1.62 1.51 1.40 1.45 1.40 1.25 1.13 1.10 1.25 1.33 1.30 1.43
2.21 3.05 3.89 4.80 4.45 3.79 3.55 3.11 2.82 2.29 1.65 1.32 0.97 0.89 0.99 1.10 1.17 1.87 3.15 3.00 1.90 1.56 1.64 2.00 2.80 2.68 2.26 2.06 2.03 2.17 2.21 2.32 2.26 2.12 1.91 1.76 1.74 1.67 1.53 1.49 1.60 1.42 1.30 1.17 1.11 1.25 1.42 1.36 1.43
2.31 3.39 4.39 4.68 3.58 3.29 3.44 3.20 2.62 1.89 1.34 1.22 1.02 0.89 1.10 1.43 1.51 2.13 2.92 2.26 1.63 1.51 1.61 2.18 2.79 2.53 2.20 2.00 2.19 2.41 2.44 2.41 2.22 1.99 1.78 1.75 1.79 1.72 1.65 1.64 1.65 1.41 1.31 1.20 1.14 1.24 1.30 1.27 1.28
2.68 3.83 4.04 3.76 3.14 2.73 2.87 2.83 2.22 1.77 1.33 0.93 0.92 0.96 1.05 1.49 1.57 1.89 1.93 1.61 1.41 1.53 1.63 2.09 2.68 2.50 2.27 2.06 2.29 2.44 2.51 2.56 2.45 2.15 1.88 1.80 1.77 1.72 1.66 1.70 1.54 1.40 1.29 1.16 1.12 1.20 1.25 1.23 1.24
3.09 3.99 3.89 3.36 2.99 2.66 2.37 2.00 1.76 1.68 1.35 1.01 0.86 1.11 1.53 1.95 1.73 1.60 1.54 1.45 1.29 1.39 1.42 1.69 2.38 2.48 2.31 2.21 2.43 2.50 2.58 2.76 2.69 2.39 2.20 1.96 1.79 1.73 1.69 1.73 1.56 1.45 1.37 1.29 1.25 1.27 1.28 1.23 1.27
3.38 3.46 3.73 3.29 2.94 2.73 2.58 1.90 1.67 1.62 1.23 0.98 0.93 1.20 2.00 2.39 2.01 1.72 1.52 1.58 1.50 1.46 1.38 1.38 2.04 2.31 2.30 2.34 2.41 2.41 2.43 2.51 2.56 2.35 2.16 1.94 1.78 1.73 1.80 1.82 1.62 1.51 1.37 1.30 1.31 1.36 1.41 1.38 1.36
3.31 3.40 3.43 2.83 2.85 3.04 2.65 1.86 1.70 1.59 1.46 1.17 0.88 1.35 2.13 2.57 2.15 1.73 1.59 1.59 1.68 1.60 1.53 1.43 1.57 1.89 2.23 2.30 2.18 2.20 2.18 2.20 2.34 2.19 2.05 1.87 1.79 1.73 1.75 1.76 1.64 1.56 1.51 1.46 1.44 1.55 1.58 1.47 1.43
2.45 2.77 2.82 2.74 2.86 3.06 2.28 1.71 1.40 1.37 1.35 1.01 0.83 1.35 2.02 2.04 1.80 1.71 1.77 1.89 2.00 1.78 1.65 1.46 1.41 1.50 1.59 1.81 1.97 2.14 2.20 2.19 2.27 2.08 1.87 1.74 1.68 1.56 1.61 1.58 1.56 1.65 1.68 1.74 1.74 1.74 1.66 1.58 1.46
2.22 2.90 3.18 3.15 2.86 2.45 1.61 1.46 1.25 1.04 1.12 0.98 0.80 0.88 1.17 1.26 1.39 1.62 1.70 1.79 1.85 1.57 1.47 1.51 1.51 1.54 1.58 1.53 1.60 1.92 2.06 2.11 2.00 1.91 1.79 1.60 1.35 1.22 1.36 1.45 1.74 1.85 1.92 1.94 1.94 1.86 1.76 1.58 1.38
2.26 3.00 2.99 2.38 2.08 1.81 1.32 1.24 1.12 1.13 1.19 1.12 0.93 0.91 1.03 1.11 1.36 1.54 1.49 1.50 1.42 1.31 1.26 1.32 1.35 1.47 1.52 1.38 1.60 1.90 1.74 1.65 1.42 1.44 1.31 1.34 1.27 1.21 1.03 1.24 1.68 1.83 1.82 1.77 1.83 1.86 1.63 1.32 0.99
1.79 2.31 2.08 1.83 1.60 1.34 1.18 1.22 1.09 1.13 1.30 1.19 0.99 1.05 1.31 1.34 1.36 1.31 1.24 1.28 1.18 1.12 1.07 1.02 1.08 1.13 1.26 1.42 1.66 1.96 2.03 1.84 1.61 1.37 1.29 1.33 1.25 1.14 1.02 1.04 1.21 1.34 1.37 1.21 1.22 1.24 1.11 1.01 0.93
1.53 1.51 1.50 1.69 1.43 1.34 1.14 1.11 1.15 1.13 1.19 1.06 0.88 0.92 1.13 1.32 1.41 1.30 1.11 1.07 0.93 0.92 1.01 0.84 0.75 0.89 1.06 1.17 1.30 1.58 1.65 1.58 1.47 1.27 1.18 1.28 1.31 1.18 1.13 1.12 1.16 1.18 1.16 1.18 1.15 1.20 1.17 0.99 0.89
1.87 1.60 1.37 1.35 1.35 1.40 1.18 1.09 1.10 1.10 1.01 0.90 0.84 0.99 1.12 1.15 1.21 1.14 1.02 0.97 0.93 0.94 0.97 0.87 0.75 0.74 0.81 0.86 0.97 1.12 1.28 1.36 1.38 1.35 1.16 1.17 1.30 1.26 1.22 1.16 1.21 1.09 1.02 1.08 1.15 1.18 1.20 1.10 0.95
1.75 1.52 1.49 1.47 1.37 1.36 1.35 1.09 1.08 1.30 1.01 0.89 0.95 1.04 1.04 1.01 1.00 1.07 1.02 1.00 0.91 0.89 0.98 0.93 0.81 0.79 0.82 0.78 0.77 0.77 0.92 1.09 1.22 1.26 1.16 1.18 1.28 1.29 1.34 1.28 1.22 1.15 1.07 1.10 1.27 1.23 1.25 1.23 1.15
1.66 1.80 1.70 1.59 1.46 1.42 1.35 1.47 1.37 1.25 1.04 0.99 1.06 1.01 0.97 0.94 0.92 1.01 0.95 0.89 0.85 0.86 0.92 0.97 0.92 0.93 0.93 0.88 0.84 0.70 0.74 0.84 1.01 1.16 1.16 1.23 1.20 1.14 1.21 1.23 1.18 1.16 1.17 1.19 1.24 1.28 1.35 1.27 1.17
1.89 2.10 2.22 1.86 1.56 1.33 1.37 1.86 1.71 1.37 1.11 1.14 1.11 1.02 0.97 0.93 0.88 0.91 0.90 0.88 0.85 0.87 0.94 1.03 1.01 1.04 1.05 1.06 1.02 0.94 0.96 1.04 1.11 1.27 1.25 1.21 1.25 1.21 1.20 1.23 1.22 1.25 1.29 1.28 1.31 1.39 1.38 1.34 1.33
2.05 2.08 1.94 1.79 1.43 1.19 1.24 1.58 1.58 1.41 1.15 1.04 1.03 0.98 0.88 0.78 0.76 0.75 0.72 0.72 0.77 0.81 0.87 0.93 1.03 1.08 1.10 1.14 1.23 1.32 1.34 1.33 1.34 1.40 1.34 1.23 1.25 1.30 1.41 1.44 1.45 1.40 1.42 1.42 1.37 1.39 1.32 1.33 1.34
1.93 1.62 1.42 1.39 1.29 1.14 1.08 1.19 1.22 1.24 1.12 0.95 0.85 0.82 0.83 0.72 0.68 0.63 0.59 0.60 0.68 0.74 0.79 0.87 0.95 1.14 1.26 1.31 1.32 1.47 1.52 1.56 1.62 1.66 1.50 1.37 1.42 1.55 1.73 1.81 1.70 1.66 1.65 1.63 1.57 1.62 1.52 1.40 1.44
1.40 1.36 1.24 1.07 1.03 1.10 1.01 1.00 1.02 1.01 1.00 0.89 0.76 0.64 0.61 0.60 0.56 0.54 0.51 0.53 0.58 0.62 0.67 0.77 0.83 0.99 1.11 1.18 1.31 1.53 1.70 1.86 1.95 2.01 1.87 1.74 1.71 1.86 2.01 1.92 2.00 2.01 1.87 1.87 1.93 1.96 1.93 1.75 1.61
1.24 1.27 1.12 0.97 0.82 0.86 0.89 0.92 0.92 0.85 0.85 0.75 0.63 0.55 0.47 0.42 0.40 0.38 0.34 0.36 0.40 0.40 0.45 0.55 0.67 0.74 0.88 1.07 1.32 1.54 1.85 1.93 2.01 2.09 2.09 1.99 1.93 2.08 2.12 2.19 2.28 2.30 2.30 2.23 2.12 2.23 2.38 2.12 1.89
1.04 1.10 1.01 0.94 0.83 0.76 0.75 0.92 0.86 0.79 0.75 0.66 0.52 0.45 0.36 0.29 0.25 0.21 0.22 0.28 0.33 0.32 0.35 0.43 0.56 0.72 0.97 1.21 1.52 1.79 2.09 2.21 2.28 2.24 2.26 2.25 2.26 2.30 2.34 2.40 2.44 2.45 2.31 2.30 2.40 2.53 2.87 2.68 2.31
1.01 0.75 0.70 0.72 0.90 0.94 0.77 1.08 0.80 0.65 0.64 0.58 0.49 0.45 0.37 0.27 0.22 0.21 0.21 0.24 0.27 0.31 0.37 0.50 0.70 0.92 1.20 1.55 1.91 2.17 2.43 2.57 2.41 2.39 2.40 2.37 2.28 2.28 2.39 2.39 2.37 2.33 2.27 2.33 2.40 2.45 2.87 3.09 2.79
0.71 0.60 0.71 0.76 0.81 0.77 0.59 0.77 0.70 0.54 0.60 0.53 0.44 0.43 0.42 0.34 0.28 0.26 0.26 0.30 0.37 0.45 0.54 0.72 0.99 1.30 1.58 1.83 2.03 2.28 2.41 2.43 2.38 2.35 2.36 2.26 2.22 2.19 2.20 2.19 2.27 2.28 2.30 2.36 2.53 2.66 2.93 2.96 2.96
0.54 0.65 0.80 0.82 0.88 0.92 0.52 0.61 0.72 0.55 0.51 0.49 0.44 0.39 0.35 0.33 0.34 0.35 0.37 0.47 0.55 0.63 0.80 0.99 1.18 1.48 1.68 1.82 1.94 2.09 2.23 2.29 2.28 2.29 2.33 2.31 2.27 2.16 2.07 2.01 2.08 2.21 2.34 2.38 2.46 2.62 2.88 3.00 3.09
0.53 0.93 1.28 1.30 1.22 0.92 0.45 0.64 0.74 0.54 0.42 0.37 0.39 0.37 0.33 0.38 0.45 0.46 0.57 0.72 0.79 0.85 0.98 1.16 1.23 1.43 1.53 1.59 1.71 1.85 1.90 1.94 1.97 1.97 1.98 1.90 1.85 1.84 1.89 1.94 2.01 2.14 2.24 2.31 2.43 2.56 2.61 2.73 2.98
0.49 0.76 1.28 1.40 1.19 0.86 0.60 0.88 0.79 0.53 0.41 0.39 0.39 0.36 0.40 0.52 0.63 0.73 0.87 0.96 1.04 1.08 1.07 1.13 1.27 1.30 1.29 1.35 1.36 1.48 1.57 1.63 1.67 1.63 1.63 1.68 1.71 1.73 1.68 1.71 1.78 1.99 2.18 2.26 2.36 2.38 2.36 2.42 2.60
0.50 0.54 0.61 0.89 0.85 0.88 0.83 1.00 0.91 0.54 0.45 0.45 0.44 0.42 0.49 0.66 0.87 1.11 1.30 1.39 1.48 1.44 1.27 1.15 1.16 1.14 1.12 1.22 1.29 1.33 1.38 1.43 1.45 1.46 1.38 1.48 1.51 1.51 1.46 1.50 1.53 1.64 1.86 2.09 2.24 2.21 2.14 2.11 2.26
0.41 0.54 0.69 1.04 1.24 1.20 1.05 1.15 1.15 0.77 0.62 0.54 0.57 0.64 0.77 0.98 1.31 1.60 1.86 2.03 2.01 1.80 1.55 1.32 1.14 1.06 1.03 1.09 1.18 1.26 1.29 1.29 1.26 1.29 1.21 1.25 1.34 1.33 1.27 1.27 1.38 1.54 1.65 1.83 2.03 2.11 2.06 2.06 2.14
0.45 0.62 0.78 1.02 1.07 1.34 1.49 1.47 1.19 1.04 0.88 0.81 0.90 1.09 1.28 1.53 1.75 1.95 2.13 2.25 2.05 1.85 1.57 1.31 1.13 1.12 1.14 1.17 1.20 1.22 1.18 1.16 1.14 1.09 1.05 1.10 1.17 1.16 1.15 1.30 1.37 1.45 1.54 1.72 1.96 2.13 2.13 2.06 2.07
0.57 0.82 1.06 1.46 1.35 1.25 1.52 1.59 1.13 1.00 0.99 1.01 1.12 1.22 1.36 1.49 1.51 1.63 1.74 1.75 1.80 1.74 1.55 1.34 1.22 1.21 1.25 1.27 1.30 1.25 1.19 1.13 1.10 1.06 0.98 0.97 0.93 0.90 1.01 1.14 1.20 1.25 1.29 1.48 1.76 1.96 2.01 1.99 1.88